Location: Grand Rapids
(42.9630°N, 85.6680°W)
Time: 01:36:28
(UTC-04:00)

S-56A Canister/Altair - Pass Details

Date: 02 June 2024
Orbit: 637 x 2489 km, 38.9° (Epoch: 21 June)

Event Time Altitude Azimuth Distance (km) Brightness Sun altitude
Rises 11:08:25 0° 284° (WNW) 5,587 11.6 52.3°
Reaches altitude 10° 11:13:22 10° 272° (W) 4,272 11.1 53.2°
Maximum altitude 11:21:13 23° 227° (SW) 2,779 10.5 54.5°
Drops below altitude 10° 11:27:14 10° 178° (S) 3,158 11.0 55.5°
Sets 11:30:16 0° 163° (SSE) 3,854 11.4 56.0°
